IRIDIUM 103

Last updated on Fri Sep 11 2026 00:03:05 GMT+0000 (Coordinated Universal Time)

1 41918U 17003B 26253.47946743 .00000163 00000+0 51018-4 0 9994 2 41918 86.3933 52.7663 0002330 90.6366 269.5097 14.34217353505454
UTC large
Height (km)
Speed (km/s)
/
Latitude / Longitude
Inclination (degrees)
Orbital Period (minutes)
Azimuth
Elevation
Range (km)
Doppler Factor

Next 0 passes for location: London (51.5072 / 0.1276)

No passes found over London.
IRIDIUM 103